Location: Chippewa Lake
(41.0698°N, 81.9010°W)
Time: 21:52:10
(UTC+00:00)

Cosmos 1607 - Pass Details

Date: 09 May 2021
Orbit: 909 x 993 km, 65.0° (Epoch: 17 June)

Event Time Altitude Azimuth Distance (km) Brightness Sun altitude
Exits shadow 06:15:46 61° 290° (WNW) 1,111 4.2 -30.3°
Maximum altitude 06:16:06 62° 306° (NW) 1,103 4.2 -30.3°
Drops below altitude 10° 06:22:33 10° 27° (NNE) 2,763 7.3 -29.9°
Sets 06:25:11 0° 31° (NNE) 3,715 8.2 -29.8°
